[[{"header":{"parameterUnit":"m.s-1","parameterCategory":1,"la1":30.2991,"la2":30.254,"lo1":-89.0895,"lo2":-89.0444,"dy":0.0017,"dx":0.0017,"nx":28,"ny":28,"refTime":"2025-05-30T09:00:00:Z","depth":0,"parameterNumber":2,"parameterNumberName":"U-component_of_WINDS"},"data":[0,0,0,0,0,0,0,0,0,0,0,0,0,0,0,0,0,0,0,0,0,0,0,0,0,0,0,0,0,0,0,0,0,0,0,0,0,0,0,0,0,0,0,0,0,0,0,0,0,0,0,0,0,0,0,0,0,0,1.6736,1.6737,0,1.686,1.6861,1.6863,1.6849,1.6847,1.6845,1.6843,1.698,1.6986,1.6991,0,0,0,0,0,0,0,0,0,0,0,0,0,1.6496,1.65,1.6735,1.6737,1.6739,1.686,1.6861,1.6863,1.6849,1.6847,1.6844,1.6842,1.6979,1.6985,1.6992,0,0,0,0,0,0,0,0,0,0,0,0,0,1.6608,1.6502,1.6735,1.6746,1.6748,1.6859,1.6862,1.6864,1.685,1.6847,1.6844,1.6841,1.6976,1.6985,1.6993,1.7104,0,0,1.7018,1.7022,0,0,0,0,0,0,0,0,1.6602,1.6617,1.6743,1.6745,1.6748,1.6836,1.6827,1.6945,1.6851,1.6812,1.6843,1.6839,1.6935,1.6947,1.6977,1.7111,1.7116,1.7019,1.7024,1.7027,1.703,0,0,0,0,0,0,0,1.6594,1.6612,1.6785,1.6745,1.6748,1.6748,1.6761,1.685,1.6889,1.6815,1.6814,1.6828,1.6936,1.6969,1.698,1.7119,1.7019,1.7026,1.7031,1.7034,1.7353,1.7357,0,0,0,0,0,0,1.6582,1.6605,1.6781,1.6789,1.6666,1.6755,1.6769,1.6811,1.6888,1.6897,1.6831,1.6827,1.6956,1.6971,1.6985,1.7123,1.7027,1.7035,1.704,1.735,1.7354,1.7358,0,0,0,0,0,0,1.6577,1.6598,1.6776,1.6697,1.6719,1.6762,1.6809,1.6815,1.6848,1.69,1.6908,1.6856,1.6955,1.6973,1.7075,1.7128,1.7039,1.7046,1.7346,1.7351,1.7356,1.7399,0,0,0,0,0,0,1.657,1.6596,1.6637,1.6698,1.6724,1.6861,1.6812,1.6819,1.6861,1.6857,1.6926,1.6935,1.6954,1.7062,1.7083,1.7138,1.7053,1.7341,1.7348,1.7355,1.7393,1.7405,1.7415,0,0,0,0,0,1.6562,1.6645,1.6639,1.666,1.6774,1.6864,1.6879,1.6896,1.6865,1.6908,1.6942,1.6933,1.7118,1.7073,1.7096,1.7154,1.7338,1.7346,1.7354,1.7388,1.7403,1.7415,0,0,0,0,0,0,1.6593,1.6654,1.6647,1.6752,1.6802,1.6861,1.6915,1.691,1.6973,1.6968,1.6989,1.7005,1.7108,1.7141,1.7089,1.7268,1.7224,1.7237,1.7243,1.7257,1.7268,1.726,1.706,0,0,0,0,0,1.6611,1.6675,1.6726,1.6814,1.6839,1.6873,1.6912,1.6921,1.6975,1.6998,1.7039,1.7095,1.7166,1.7213,1.7281,1.7397,1.7414,1.7448,1.7459,1.7468,1.7481,1.7548,1.7565,1.7384,1.7384,1.7384,0,0,1.6651,1.6692,1.6732,1.6821,1.6861,1.6931,1.6891,1.6966,1.7019,1.701,1.7108,1.7141,1.7205,1.7315,1.7365,1.7346,1.7534,1.7478,1.7485,1.7493,1.7558,1.7575,1.759,1.7389,1.7388,1.7387,0,0,1.676,1.6795,1.6874,1.6914,1.6975,1.6996,1.7015,1.7075,1.7095,1.7193,1.7189,1.7254,1.7375,1.7422,1.7461,1.7588,1.7584,1.761,1.767,1.7735,1.7749,1.7762,1.7811,1.7828,1.7621,1.7621,1.7621,0,1.6803,1.6904,1.6916,1.6991,1.7033,1.7024,1.7106,1.7146,1.7227,1.7257,1.7232,1.7385,1.7428,1.755,1.7581,1.7612,1.7638,1.7604,1.7745,1.7758,1.7771,1.7818,1.7836,1.7624,1.7624,1.7624,1.7623,0,1.6956,1.7027,1.7083,1.7159,1.7206,1.7284,1.7311,1.7358,1.7363,1.7388,1.7491,1.7541,1.762,1.7649,1.7655,1.7774,1.776,1.774,1.7698,1.7791,1.7836,1.7853,1.7629,1.7627,1.7627,1.7626,0,0,1.709,1.717,1.7191,1.7226,1.7292,1.7349,1.7428,1.7502,1.7544,1.76,1.767,1.7773,1.7755,1.78,1.7812,1.7868,1.797,1.7842,1.7844,1.7868,1.8108,1.8125,1.8146,1.7966,1.7969,1.7972,1.8104,0,1.7208,1.7345,1.7358,1.7483,1.7551,1.7544,1.7614,1.7664,1.769,1.7754,1.7784,1.7858,1.7827,1.7854,1.791,1.7946,1.802,1.7936,1.8036,1.804,1.8024,1.8168,1.8186,1.8308,1.8121,1.8124,1.8126,0,1.7364,1.7422,1.7553,1.7611,1.764,1.7702,1.7773,1.7832,1.789,1.7906,1.7956,1.796,1.8046,1.7997,1.8119,1.8062,1.8103,1.8127,1.8132,1.8146,1.8091,1.8189,1.8347,1.8367,1.8153,1.8151,1.8149,0,1.7453,1.7564,1.7657,1.7687,1.7756,1.7801,1.7832,1.7886,1.7931,1.7994,1.8024,1.8097,1.8138,1.8196,1.8221,1.8182,1.8342,1.8295,1.8361,1.8361,1.8398,1.8396,1.8569,1.8419,1.8418,1.8418,1.8417,0,1.7586,1.7667,1.7698,1.7756,1.7848,1.7864,1.7956,1.7986,1.8034,1.8101,1.8099,1.8162,1.8189,1.8258,1.8278,1.8378,1.8395,1.8413,1.8419,1.8416,1.8414,1.8446,1.844,1.8423,1.8422,1.8421,1.842,0,1.7702,1.7726,1.7828,1.7884,1.79,1.7966,1.8016,1.8074,1.8098,1.8183,1.8204,1.8244,1.8325,1.8354,1.8453,1.8466,1.8583,1.8579,1.8563,1.8565,1.8631,1.8626,1.8834,1.8864,1.869,1.8691,1.8693,0,1.7787,1.7849,1.7912,1.7954,1.7987,1.8056,1.8101,1.8119,1.8167,1.8238,1.8288,1.8367,1.8432,1.8562,1.8603,1.8679,1.868,1.8747,1.8692,1.8688,1.8686,1.8683,1.8691,1.8759,1.8761,1.8762,1.8763,0,1.7937,1.7945,1.8008,1.8077,1.813,1.8185,1.8238,1.8275,1.8301,1.8356,1.8436,1.8486,1.8586,1.8667,1.8745,1.8781,1.8779,1.878,1.88,1.88,1.8789,1.88,1.8595,1.8776,1.8775,1.8774,1.8773,1.8773,1.8043,1.8099,1.8152,1.8223,1.8264,1.8315,1.8373,1.8403,1.847,1.8551,1.8558,1.8646,1.8705,1.8809,1.8849,1.8921,1.8903,1.8932,1.894,1.8947,1.8954,1.8774,1.8935,1.8935,1.8934,1.8934,1.8934,0,1.8196,1.8229,1.8294,1.8368,1.8425,1.8413,1.8472,1.8522,1.8598,1.8652,1.8715,1.8809,1.8887,1.8933,1.9012,1.9062,1.9063,1.9082,1.9081,1.909,1.8963,1.894,1.908,1.908,1.908,1.908,1.908,1.908,1.8282,1.8377,1.8392,1.8509,1.8543,1.8627,1.8662,1.871,1.8753,1.8857,1.8921,1.8949,1.9001,1.9084,1.9156,1.9168,1.9199,1.9221,1.9232,1.9114,1.9099,1.9085,1.9063,1.9227,1.9227,1.9354,1.9355,1.9356]},{"header":{"parameterUnit":"m.s-1","parameterCategory":1,"la1":30.2991,"la2":30.254,"lo1":-89.0895,"lo2":-89.0444,"dy":0.0017,"dx":0.0017,"nx":28,"ny":28,"refTime":"2025-05-30T09:00:00:Z","depth":0,"parameterNumber":3,"parameterNumberName":"V-component_of_WINDS"},"data":[0,0,0,0,0,0,0,0,0,0,0,0,0,0,0,0,0,0,0,0,0,0,0,0,0,0,0,0,0,0,0,0,0,0,0,0,0,0,0,0,0,0,0,0,0,0,0,0,0,0,0,0,0,0,0,0,0,0,-0.6725,-0.6726,0,-0.6747,-0.6748,-0.6748,-0.6746,-0.6745,-0.6745,-0.6745,-0.6766,-0.6767,-0.6768,0,0,0,0,0,0,0,0,0,0,0,0,0,-0.6681,-0.6682,-0.6725,-0.6726,-0.6726,-0.6747,-0.6748,-0.6748,-0.6746,-0.6745,-0.6745,-0.6745,-0.6766,-0.6767,-0.6768,0,0,0,0,0,0,0,0,0,0,0,0,0,-0.6701,-0.6682,-0.6725,-0.6727,-0.6728,-0.6747,-0.6748,-0.6748,-0.6746,-0.6745,-0.6745,-0.6744,-0.6766,-0.6767,-0.6768,-0.6787,0,0,-0.6772,-0.6773,0,0,0,0,0,0,0,0,-0.67,-0.6703,-0.6727,-0.6727,-0.6728,-0.6743,-0.674,-0.6761,-0.6746,-0.6739,-0.6745,-0.6744,-0.6759,-0.6761,-0.6766,-0.6788,-0.6789,-0.6773,-0.6773,-0.6774,-0.6774,0,0,0,0,0,0,0,-0.6699,-0.6702,-0.6734,-0.6727,-0.6728,-0.6727,-0.6729,-0.6744,-0.6752,-0.674,-0.6739,-0.6742,-0.6759,-0.6765,-0.6767,-0.6789,-0.6773,-0.6774,-0.6775,-0.6775,-0.6828,-0.6828,0,0,0,0,0,0,-0.6697,-0.6701,-0.6733,-0.6735,-0.6712,-0.6728,-0.6731,-0.6739,-0.6751,-0.6753,-0.6743,-0.6742,-0.6763,-0.6765,-0.6767,-0.679,-0.6774,-0.6775,-0.6776,-0.6827,-0.6828,-0.6828,0,0,0,0,0,0,-0.6696,-0.67,-0.6732,-0.6718,-0.6722,-0.673,-0.6738,-0.6739,-0.6745,-0.6754,-0.6755,-0.6747,-0.6762,-0.6766,-0.6782,-0.6791,-0.6776,-0.6777,-0.6826,-0.6827,-0.6828,-0.6835,0,0,0,0,0,0,-0.6695,-0.67,-0.6707,-0.6718,-0.6723,-0.6747,-0.6739,-0.674,-0.6748,-0.6747,-0.6758,-0.6759,-0.6762,-0.678,-0.6784,-0.6792,-0.6778,-0.6826,-0.6827,-0.6828,-0.6834,-0.6836,-0.6838,0,0,0,0,0,-0.6693,-0.6708,-0.6707,-0.6711,-0.6732,-0.6747,-0.675,-0.6753,-0.6748,-0.6755,-0.6761,-0.6759,-0.6789,-0.6782,-0.6786,-0.6795,-0.6825,-0.6826,-0.6828,-0.6833,-0.6836,-0.6838,0,0,0,0,0,0,-0.6697,-0.6709,-0.6709,-0.6727,-0.6736,-0.6747,-0.6756,-0.6756,-0.6766,-0.6765,-0.6769,-0.6771,-0.6788,-0.6793,-0.6785,-0.6814,-0.6807,-0.6809,-0.681,-0.6812,-0.6814,-0.6812,-0.6779,0,0,0,0,0,-0.67,-0.6711,-0.6722,-0.6737,-0.6742,-0.6748,-0.6755,-0.6757,-0.6766,-0.677,-0.6777,-0.6786,-0.6798,-0.6805,-0.6816,-0.6835,-0.6838,-0.6843,-0.6845,-0.6847,-0.6848,-0.6859,-0.6862,-0.6833,-0.6833,-0.6833,0,0,-0.6706,-0.6714,-0.6721,-0.6738,-0.6745,-0.6757,-0.6751,-0.6764,-0.6773,-0.6772,-0.6788,-0.6794,-0.6804,-0.6822,-0.683,-0.6827,-0.6857,-0.6849,-0.685,-0.685,-0.6861,-0.6863,-0.6866,-0.6834,-0.6833,-0.6833,0,0,-0.6723,-0.673,-0.6744,-0.6752,-0.6763,-0.6768,-0.6771,-0.6782,-0.6786,-0.6802,-0.6801,-0.6812,-0.6832,-0.684,-0.6846,-0.6867,-0.6866,-0.6871,-0.688,-0.689,-0.6893,-0.6895,-0.6902,-0.6905,-0.6872,-0.6872,-0.6872,0,-0.6729,-0.6747,-0.6751,-0.6764,-0.6772,-0.6772,-0.6786,-0.6793,-0.6807,-0.6812,-0.6808,-0.6834,-0.6841,-0.6861,-0.6866,-0.6871,-0.6875,-0.6869,-0.6892,-0.6894,-0.6896,-0.6903,-0.6906,-0.6873,-0.6873,-0.6873,-0.6873,0,-0.6754,-0.6767,-0.6777,-0.6791,-0.6799,-0.6813,-0.6819,-0.6827,-0.6828,-0.6833,-0.685,-0.6859,-0.6872,-0.6877,-0.6878,-0.6897,-0.6894,-0.6891,-0.6884,-0.6899,-0.6906,-0.6909,-0.6874,-0.6873,-0.6873,-0.6873,0,0,-0.6773,-0.679,-0.6794,-0.68,-0.6813,-0.6823,-0.6837,-0.685,-0.6857,-0.6867,-0.6878,-0.6896,-0.6893,-0.69,-0.6903,-0.6912,-0.6928,-0.6908,-0.6908,-0.6911,-0.6949,-0.6951,-0.6954,-0.6927,-0.6928,-0.6928,-0.6948,0,-0.6791,-0.6816,-0.682,-0.6841,-0.6853,-0.6854,-0.6866,-0.6875,-0.688,-0.6891,-0.6896,-0.6909,-0.6904,-0.6909,-0.6918,-0.6924,-0.6935,-0.6923,-0.6938,-0.6938,-0.6935,-0.6958,-0.696,-0.6978,-0.6951,-0.6951,-0.6952,0,-0.6816,-0.6827,-0.685,-0.6861,-0.6867,-0.6877,-0.689,-0.69,-0.6911,-0.6914,-0.6923,-0.6924,-0.6938,-0.6931,-0.695,-0.6942,-0.6948,-0.6952,-0.6953,-0.6954,-0.6946,-0.6959,-0.6984,-0.6987,-0.6956,-0.6956,-0.6955,0,-0.6827,-0.6848,-0.6864,-0.687,-0.6884,-0.6892,-0.6898,-0.6908,-0.6916,-0.6927,-0.6932,-0.6945,-0.6951,-0.6961,-0.6966,-0.696,-0.6985,-0.6978,-0.6988,-0.6988,-0.6993,-0.6992,-0.7018,-0.6998,-0.6997,-0.6997,-0.6997,0,-0.6847,-0.6861,-0.687,-0.688,-0.6895,-0.69,-0.6915,-0.6921,-0.693,-0.6941,-0.6943,-0.6953,-0.6959,-0.697,-0.6974,-0.699,-0.6993,-0.6996,-0.6997,-0.6995,-0.6995,-0.6999,-0.6998,-0.6998,-0.6998,-0.6998,-0.6998,0,-0.6862,-0.6869,-0.6886,-0.6899,-0.6902,-0.6913,-0.6923,-0.6933,-0.6939,-0.6953,-0.6956,-0.6965,-0.6978,-0.6984,-0.7,-0.7003,-0.7021,-0.7021,-0.7017,-0.7017,-0.7027,-0.7026,-0.7057,-0.7061,-0.7037,-0.7038,-0.7038,0,-0.6874,-0.6884,-0.6898,-0.6906,-0.6912,-0.6925,-0.6933,-0.6938,-0.6947,-0.696,-0.6968,-0.6982,-0.6993,-0.7014,-0.7022,-0.7035,-0.7035,-0.7045,-0.7036,-0.7035,-0.7035,-0.7034,-0.7035,-0.7046,-0.7046,-0.7046,-0.7046,0,-0.6894,-0.6897,-0.6909,-0.6922,-0.6932,-0.6942,-0.6953,-0.6959,-0.6966,-0.6975,-0.6989,-0.6998,-0.7015,-0.7029,-0.7042,-0.7048,-0.7049,-0.7049,-0.7052,-0.7051,-0.7048,-0.7049,-0.7021,-0.7048,-0.7048,-0.7048,-0.7048,-0.7048,-0.6908,-0.6917,-0.6929,-0.6942,-0.695,-0.696,-0.697,-0.6977,-0.6989,-0.7003,-0.7006,-0.7021,-0.7032,-0.705,-0.7057,-0.7068,-0.7066,-0.707,-0.7071,-0.7072,-0.7072,-0.7047,-0.7071,-0.7071,-0.7071,-0.7071,-0.7071,0,-0.6928,-0.6935,-0.6948,-0.6962,-0.6973,-0.6973,-0.6984,-0.6993,-0.7006,-0.7016,-0.7028,-0.7044,-0.7057,-0.7066,-0.7079,-0.7087,-0.7088,-0.709,-0.709,-0.7091,-0.7074,-0.707,-0.709,-0.709,-0.709,-0.709,-0.709,-0.709,-0.6939,-0.6956,-0.696,-0.6981,-0.6988,-0.7003,-0.701,-0.7019,-0.7027,-0.7045,-0.7056,-0.7062,-0.7072,-0.7086,-0.7099,-0.7101,-0.7106,-0.7109,-0.7111,-0.7094,-0.7092,-0.709,-0.7087,-0.711,-0.711,-0.7127,-0.7127,-0.7127]}]]